Home   Weather   Sutton Coldfield   Past weeks

Flag for United Kingdom Past Weather in Sutton Coldfield, England, United Kingdom — Yesterday and Last 2 Weeks

52 °F

Passing clouds.

Feels Like: 49 °F
Forecast: 43 / 50 °F
Wind: 9 mph from Northeast

Location: Birmingham / Airport

Current Time: Oct 22, 2016 at 5:18:00 PM

Latest Report: Oct 22, 2016 at 4:20 PM

Visibility: N/A

Pressure: 30.01 "Hg

Humidity: 77%

Dew Point: 45 °F

Location of Sutton ColdfieldLocation

Past Weather in Sutton Coldfield — Graph


Sutton Coldfield Temperature Yesterday

Maximum temperature yesterday: 54 °F (at 1:20 PM)
Minimum temperature yesterday: 43 °F (at 1:20 AM)
Average temperature yesterday: 48 °F

High & Low Weather Summary for the Past Weeks

High61 °F (Oct 16, 1:20 PM)100% (Oct 8, 12:20 AM)30.42 "Hg (Oct 8, 12:20 AM)
Low41 °F (Oct 10, 4:20 AM)54% (Oct 18, 1:50 PM)29.62 "Hg (Oct 15, 6:50 AM)
Average51 °F87%30.09 "Hg
* Reported Oct 7 4:20 PM — Oct 22 4:20 PM, Sutton Coldfield, Weather by CustomWeather, © 2016

Note: Actual official high and low records may vary slightly from our data, if they occured in-between our weather recording intervals... More about our weather records


Sutton Coldfield Weather History for the Previous 24 Hours

Scroll right to see more
Time TempWeatherWind HumidityBarometerVisibility
4:20 PM
Sat, Oct 22
52 °FPassing clouds.9 mph77%30.01 "HgN/A
3:50 PM54 °FPassing clouds.10 mph72%30.01 "HgN/A
3:20 PM54 °FBroken clouds.9 mph72%30.01 "HgN/A
2:50 PM55 °FScattered clouds.7 mph67%30.04 "HgN/A
2:20 PM54 °FScattered clouds.8 mph72%30.04 "HgN/A
1:50 PM54 °FScattered clouds.7 mph77%30.04 "HgN/A
1:20 PM52 °FBroken clouds.9 mph82%30.04 "HgN/A
12:50 PM52 °FBroken clouds.9 mph82%30.04 "HgN/A
12:20 PM52 °FScattered clouds.5 mph88%30.07 "HgN/A
11:50 AM48 °FScattered clouds.6 mph94%30.07 "HgN/A
11:20 AM48 °FScattered clouds.6 mph94%30.07 "Hg4 mi
10:50 AM46 °FPartly sunny.6 mph100%30.07 "Hg4 mi
10:20 AM46 °FFog.6 mph100%30.07 "Hg2 mi
9:50 AM46 °FFog.3 mph100%30.07 "Hg2 mi
9:20 AM45 °FFog.3 mph100%30.07 "Hg1 mi
8:50 AM45 °FFog.5 mph100%30.07 "Hg1 mi
8:20 AM45 °FFog.6 mph100%30.07 "Hg1 mi
7:50 AM45 °FFog.5 mph100%30.07 "Hg1 mi
7:20 AM45 °FFog.6 mph100%30.07 "Hg1 mi
6:50 AM45 °FFog.5 mph100%30.07 "Hg3 mi
6:20 AM45 °FLow clouds.5 mph100%30.07 "Hg4 mi
5:50 AM45 °FLow clouds.3 mph100%30.07 "Hg4 mi
5:20 AM45 °FLow clouds.5 mph93%30.07 "Hg5 mi
4:20 AM43 °FMostly cloudy.3 mph100%30.07 "Hg6 mi
3:50 AM43 °FPassing clouds.5 mph100%30.09 "Hg6 mi
3:20 AM41 °FPassing clouds.3 mph100%30.09 "HgN/A
2:50 AM41 °FClear.3 mph100%30.09 "Hg10 mi
2:20 AM43 °FClear.3 mph100%30.09 "Hg10 mi
1:20 AM43 °FClear.5 mph100%30.09 "Hg10 mi
12:50 AM45 °FClear.5 mph93%30.09 "Hg10 mi
12:20 AM45 °FClear.5 mph93%30.09 "Hg10 mi
11:50 PM
Fri, Oct 21
45 °FClear.5 mph100%30.12 "Hg10 mi
11:20 PM46 °FClear.3 mph93%30.12 "Hg10 mi
10:50 PM46 °FClear.3 mph93%30.12 "Hg10 mi
10:20 PM48 °FClear.3 mph87%30.12 "Hg10 mi
9:50 PM48 °FClear.6 mph87%30.12 "Hg10 mi
9:20 PM50 °FClear.5 mph82%30.12 "Hg10 mi
8:50 PM50 °FClear.5 mph82%30.12 "Hg10 mi
8:20 PM50 °FClear.5 mph82%30.12 "Hg10 mi
7:50 PM50 °FClear.5 mph82%30.12 "Hg10 mi
7:20 PM52 °FClear.5 mph77%30.12 "Hg10 mi
6:50 PM52 °FClear.5 mph77%30.12 "Hg10 mi
6:20 PM52 °FClear.5 mph77%30.12 "Hg10 mi
5:50 PM52 °FPassing clouds.6 mph77%30.12 "HgN/A
5:20 PM52 °FPassing clouds.6 mph77%30.12 "HgN/A
Weather by CustomWeather, © 2016

See weather overviewHow to use our weather pages